Find Starlink 36036

NORAD ID: 66608 Int'l Des: 2025-270 Owner: SPXS Country: US Constellation: starlink operational
LEOCIRCULAR

Current View

Loading 3D Globe...

About Starlink 36036

Description loading...

Upcoming Passes

Passes for default location (London). Set your location on the main map for personalized predictions.

Altitude History

Loading altitude history...

Two-Line Element Set

1 66608U 25270W 26149.54070987 .00029671 00000-0 10829-2 0 9991
2 66608 43.0029 319.3433 0001768 264.5374 95.5276 15.27594455 29917
Epoch: May 29, 2026 • Age: 18 hours

Current Status

Altitude 487.1 km
Velocity 7.63 km/s
Sub-Earth Point 42.41°N, 70.35°E
Launch Date Nov 22, 2025
Age 0.5 years
Type internet

Technical Details

Classification Payload
Mass 575.00 kg
Dry Mass 530.00 kg
Total Mass 575.00 kg
Length 0.30 m
Diameter 4.10 m
Span 29.00 m
Shape Box + pan
Manufacturer SPXS
Bus Type Starlink V2MO
Phase Status In Orbit
Owner/State SPXS/US

Most Searched